Tracking 25710 objects as of 6-Jul-2022
HD Live streaming from Space Station
objects crossing your sky now

FENGYUN 1C DEB

Track FENGYUN 1C DEB now!
10-day predictions


NORAD ID: 30371
Int'l Code: 1999-025ACJ
Perigee: 820.2 km
Apogee: 834.1 km
Inclination: 98.7 °
Period: 101.3 minutes
Semi major axis: 7198 km
RCS: 0.046 m2 (small)
Launch date: May 10, 1999
Source: People's Republic of China (PRC)
Launch site: Taiyaun Space Center, China (TSC)

Note: This is SATELLITE DEBRIS
aabbcc
Your satellite tracking list
Your tracking list is empty




NASA's NSSDC Master Catalog

Two Line Element Set (TLE):
1 30371U 99025ACJ 22187.10570413  .00000925  00000-0  44151-3 0  9994
2 30371  98.6912 233.7521 0009597  50.7668 336.6707 14.21582478800301
Source of the keplerian elements: AFSPC